| time (UTC) | temp C | wind direction | speed KPH | gust KPH | rain 1hr cm | rain 24hr cm | rain mn cm | humidity % | barometer mb |
| 20260506125058 | 11 | 0 | 0.0 | 6.4 | 0.00 | 0.05 | 0.00 | 92 | 1021.3 |
| 20260506124601 | 11 | 0 | 0.0 | 6.4 | 0.00 | 0.05 | 0.00 | 92 | 1021.2 |
| 20260506124100 | 11 | 352 | 0.0 | 6.4 | 0.00 | 0.05 | 0.00 | 92 | 1021.2 |
| 20260506123558 | 11 | 352 | 1.6 | 6.4 | 0.00 | 0.05 | 0.00 | 92 | 1021.2 |
| 20260506123058 | 11 | 42 | 1.6 | 6.4 | 0.00 | 0.05 | 0.00 | 92 | 1021.1 |
| 20260506122558 | 11 | 352 | 1.6 | 4.8 | 0.00 | 0.05 | 0.00 | 92 | 1021.1 |
| 20260506122058 | 11 | 317 | 0.0 | 3.2 | 0.00 | 0.05 | 0.00 | 92 | 1021.1 |
| 20260506121606 | 11 | 0 | 0.0 | 1.6 | 0.00 | 0.05 | 0.00 | 92 | 1021.0 |
| 20260506121058 | 11 | 0 | 0.0 | 1.6 | 0.00 | 0.05 | 0.00 | 92 | 1021.0 |
| 20260506120558 | 11 | 0 | 0.0 | 1.6 | 0.00 | 0.05 | 0.00 | 92 | 1020.9 |
| 20260506120111 | 11 | 0 | 0.0 | 1.6 | 0.00 | 0.05 | 0.00 | 92 | 1020.8 |
| 20260506115600 | 11 | 0 | 0.0 | 1.6 | 0.00 | 0.05 | 0.00 | 92 | 1020.7 |
| 20260506115058 | 11 | 0 | 0.0 | 1.6 | 0.00 | 0.05 | 0.00 | 91 | 1020.8 |
| 20260506114623 | 11 | 0 | 0.0 | 1.6 | 0.00 | 0.05 | 0.00 | 91 | 1020.7 |
| 20260506114058 | 11 | 0 | 0.0 | 1.6 | 0.00 | 0.05 | 0.00 | 91 | 1020.8 |
| 20260506113558 | 11 | 0 | 0.0 | 1.6 | 0.00 | 0.05 | 0.00 | 91 | 1020.7 |
| 20260506113057 | 11 | 0 | 0.0 | 1.6 | 0.00 | 0.05 | 0.00 | 91 | 1020.7 |
| 20260506112601 | 11 | 0 | 0.0 | 1.6 | 0.00 | 0.05 | 0.00 | 91 | 1020.7 |
| 20260506112059 | 11 | 0 | 0.0 | 1.6 | 0.00 | 0.05 | 0.00 | 91 | 1020.6 |
| 20260506111600 | 11 | 0 | 0.0 | 3.2 | 0.00 | 0.05 | 0.00 | 91 | 1020.6 |
| 20260506111058 | 11 | 0 | 0.0 | 3.2 | 0.00 | 0.05 | 0.00 | 91 | 1020.6 |
| 20260506110601 | 11 | 0 | 0.0 | 3.2 | 0.00 | 0.05 | 0.00 | 91 | 1020.6 |
| 20260506110058 | 11 | 0 | 0.0 | 3.2 | 0.00 | 0.05 | 0.00 | 91 | 1020.6 |
| 20260506105603 | 11 | 0 | 0.0 | 3.2 | 0.00 | 0.05 | 0.00 | 91 | 1020.6 |
| 20260506105059 | 11 | 0 | 0.0 | 3.2 | 0.00 | 0.05 | 0.00 | 91 | 1020.5 |
| 20260506104557 | 11 | 296 | 0.0 | 1.6 | 0.00 | 0.05 | 0.00 | 91 | 1020.4 |
| 20260506104058 | 11 | 0 | 0.0 | 1.6 | 0.00 | 0.05 | 0.00 | 91 | 1020.4 |
| 20260506103600 | 11 | 0 | 0.0 | 3.2 | 0.00 | 0.05 | 0.00 | 91 | 1020.3 |
| 20260506103057 | 11 | 0 | 0.0 | 3.2 | 0.00 | 0.05 | 0.00 | 91 | 1020.3 |
| 20260506102559 | 11 | 296 | 0.0 | 3.2 | 0.00 | 0.05 | 0.00 | 91 | 1020.2 |
| 20260506102059 | 11 | 0 | 0.0 | 3.2 | 0.00 | 0.05 | 0.00 | 91 | 1020.2 |
| 20260506101558 | 11 | 0 | 0.0 | 0.0 | 0.00 | 0.05 | 0.00 | 91 | 1020.1 |
| 20260506101057 | 11 | 0 | 0.0 | 0.0 | 0.00 | 0.05 | 0.00 | 91 | 1020.0 |
| 20260506100557 | 11 | 0 | 0.0 | 3.2 | 0.00 | 0.05 | 0.00 | 91 | 1019.9 |
| 20260506100058 | 11 | 0 | 0.0 | 3.2 | 0.00 | 0.05 | 0.00 | 91 | 1019.9 |
| 20260506095557 | 11 | 321 | 0.0 | 3.2 | 0.00 | 0.05 | 0.00 | 92 | 1019.8 |
| 20260506095057 | 11 | 0 | 1.6 | 3.2 | 0.00 | 0.05 | 0.00 | 92 | 1019.8 |
| 20260506094600 | 11 | 303 | 0.0 | 4.8 | 0.00 | 0.05 | 0.00 | 91 | 1019.9 |
| 20260506094057 | 12 | 0 | 0.0 | 4.8 | 0.00 | 0.05 | 0.00 | 91 | 1019.8 |
| 20260506093557 | 12 | 0 | 0.0 | 4.8 | 0.00 | 0.05 | 0.00 | 91 | 1019.7 |
| 20260506093111 | 12 | 0 | 0.0 | 3.2 | 0.00 | 0.05 | 0.00 | 91 | 1019.8 |
| 20260506092557 | 12 | 0 | 0.0 | 4.8 | 0.00 | 0.05 | 0.00 | 91 | 1019.7 |
| 20260506092057 | 12 | 0 | 1.6 | 4.8 | 0.00 | 0.05 | 0.00 | 91 | 1019.6 |
| 20260506091601 | 12 | 352 | 0.0 | 3.2 | 0.00 | 0.05 | 0.00 | 91 | 1019.7 |
| 20260506091057 | 12 | 0 | 0.0 | 0.0 | 0.00 | 0.05 | 0.00 | 91 | 1019.7 |
| 20260506090557 | 12 | 0 | 0.0 | 1.6 | 0.00 | 0.05 | 0.00 | 91 | 1019.6 |
| 20260506090112 | 12 | 0 | 0.0 | 3.2 | 0.00 | 0.05 | 0.00 | 91 | 1019.6 |
| 20260506085558 | 12 | 0 | 0.0 | 3.2 | 0.00 | 0.05 | 0.00 | 91 | 1019.6 |
| 20260506085056 | 12 | 313 | 0.0 | 3.2 | 0.00 | 0.05 | 0.00 | 91 | 1019.6 |
| 20260506084558 | 12 | 0 | 0.0 | 3.2 | 0.00 | 0.05 | 0.00 | 91 | 1019.6 |
| 20260506084058 | 12 | 313 | 0.0 | 1.6 | 0.00 | 0.05 | 0.00 | 91 | 1019.5 |
| 20260506083600 | 12 | 0 | 0.0 | 3.2 | 0.00 | 0.05 | 0.00 | 91 | 1019.5 |
| 20260506083059 | 12 | 0 | 0.0 | 3.2 | 0.00 | 0.05 | 0.00 | 91 | 1019.4 |
| 20260506082601 | 12 | 0 | 0.0 | 3.2 | 0.00 | 0.05 | 0.00 | 91 | 1019.5 |
| 20260506082058 | 12 | 312 | 1.6 | 4.8 | 0.00 | 0.05 | 0.00 | 91 | 1019.4 |
| 20260506081602 | 12 | 348 | 1.6 | 6.4 | 0.00 | 0.05 | 0.00 | 91 | 1019.5 |
| 20260506081058 | 12 | 352 | 3.2 | 6.4 | 0.00 | 0.05 | 0.00 | 90 | 1019.4 |
| 20260506080558 | 12 | 340 | 1.6 | 6.4 | 0.00 | 0.05 | 0.00 | 90 | 1019.3 |
| 20260506080112 | 12 | 313 | 1.6 | 4.8 | 0.00 | 0.05 | 0.00 | 90 | 1019.3 |
| 20260506073111 | 12 | 352 | 3.2 | 6.4 | 0.00 | 0.05 | 0.00 | 90 | 1019.1 |
| 20260506072559 | 12 | 0 | 0.0 | 4.8 | 0.00 | 0.05 | 0.00 | 90 | 1019.1 |
| 20260506072058 | 12 | 352 | 0.0 | 4.8 | 0.00 | 0.05 | 0.00 | 90 | 1019.0 |
| 20260506071604 | 12 | 352 | 1.6 | 6.4 | 0.00 | 0.05 | 0.00 | 90 | 1018.9 |
| 20260506071058 | 12 | 343 | 1.6 | 6.4 | 0.00 | 0.05 | 0.00 | 90 | 1018.9 |
| 20260506070558 | 12 | 323 | 3.2 | 8.0 | 0.00 | 0.05 | 0.00 | 90 | 1018.8 |
| 20260506062100 | 12 | 22 | 3.2 | 9.7 | 0.00 | 0.05 | 0.05 | 90 | 1018.7 |
| 20260506061605 | 12 | 346 | 3.2 | 9.7 | 0.00 | 0.05 | 0.05 | 90 | 1018.7 |
| 20260506061059 | 12 | 30 | 1.6 | 6.4 | 0.00 | 0.05 | 0.05 | 91 | 1018.7 |
| 20260506060558 | 12 | 352 | 0.0 | 6.4 | 0.00 | 0.05 | 0.05 | 91 | 1018.7 |
| 20260506051058 | 12 | 337 | 3.2 | 8.0 | 0.00 | 0.05 | 0.05 | 91 | 1018.6 |
| 20260506050558 | 12 | 351 | 1.6 | 8.0 | 0.00 | 0.05 | 0.05 | 91 | 1018.6 |
| 20260506050103 | 12 | 333 | 3.2 | 6.4 | 0.00 | 0.05 | 0.05 | 91 | 1018.6 |
| 20260506045059 | 12 | 352 | 3.2 | 6.4 | 0.00 | 0.05 | 0.05 | 91 | 1018.5 |
| 20260506044611 | 12 | 11 | 3.2 | 6.4 | 0.00 | 0.05 | 0.05 | 91 | 1018.5 |
| 20260506044058 | 12 | 352 | 3.2 | 6.4 | 0.00 | 0.05 | 0.05 | 91 | 1018.5 |
| 20260506043602 | 12 | 317 | 1.6 | 6.4 | 0.00 | 0.05 | 0.05 | 91 | 1018.4 |
| 20260506043057 | 12 | 325 | 1.6 | 6.4 | 0.00 | 0.05 | 0.05 | 90 | 1018.4 |
| 20260506042558 | 12 | 5 | 3.2 | 6.4 | 0.00 | 0.05 | 0.05 | 90 | 1018.3 |
| 20260506042058 | 12 | 339 | 1.6 | 8.0 | 0.00 | 0.05 | 0.05 | 90 | 1018.3 |
| 20260506041609 | 12 | 350 | 3.2 | 8.0 | 0.00 | 0.05 | 0.05 | 90 | 1018.3 |
| 20260506041059 | 12 | 319 | 3.2 | 8.0 | 0.00 | 0.05 | 0.05 | 90 | 1018.3 |
| 20260506040557 | 12 | 329 | 3.2 | 8.0 | 0.00 | 0.05 | 0.05 | 90 | 1018.2 |
| 20260506035558 | 12 | 314 | 1.6 | 9.7 | 0.00 | 0.05 | 0.05 | 90 | 1018.0 |
| 20260506035058 | 12 | 331 | 1.6 | 12.9 | 0.00 | 0.05 | 0.05 | 90 | 1017.9 |
| 20260506034602 | 12 | 352 | 4.8 | 12.9 | 0.00 | 0.05 | 0.05 | 90 | 1017.8 |
| 20260506034057 | 12 | 13 | 4.8 | 8.0 | 0.00 | 0.05 | 0.05 | 90 | 1017.8 |
| 20260506033558 | 12 | 349 | 3.2 | 9.7 | 0.00 | 0.05 | 0.05 | 90 | 1017.8 |
| 20260506033058 | 12 | 352 | 3.2 | 12.9 | 0.00 | 0.05 | 0.05 | 90 | 1017.8 |
| 20260506032558 | 12 | 345 | 4.8 | 14.5 | 0.00 | 0.05 | 0.05 | 90 | 1017.7 |
| 20260506032058 | 12 | 337 | 6.4 | 14.5 | 0.00 | 0.05 | 0.05 | 90 | 1017.7 |
| 20260506031603 | 12 | 321 | 1.6 | 12.9 | 0.00 | 0.05 | 0.05 | 90 | 1017.6 |
| 20260506031058 | 12 | 9 | 4.8 | 14.5 | 0.00 | 0.05 | 0.05 | 90 | 1017.5 |
| 20260506030558 | 12 | 347 | 3.2 | 14.5 | 0.00 | 0.05 | 0.05 | 89 | 1017.5 |
| 20260506030100 | 12 | 360 | 8.0 | 14.5 | 0.00 | 0.05 | 0.05 | 89 | 1017.5 |
| 20260506025557 | 12 | 331 | 3.2 | 12.9 | 0.00 | 0.05 | 0.05 | 89 | 1017.4 |
| 20260506025058 | 12 | 0 | 3.2 | 12.9 | 0.00 | 0.05 | 0.05 | 89 | 1017.3 |
| 20260506024613 | 12 | 46 | 3.2 | 8.0 | 0.00 | 0.05 | 0.05 | 88 | 1017.3 |
| 20260506024058 | 13 | 13 | 3.2 | 12.9 | 0.00 | 0.05 | 0.05 | 88 | 1017.3 |
| 20260506023559 | 13 | 351 | 4.8 | 14.5 | 0.00 | 0.05 | 0.05 | 88 | 1017.2 |
| 20260506023058 | 13 | 290 | 4.8 | 14.5 | 0.00 | 0.05 | 0.05 | 88 | 1017.2 |
| 20260506022558 | 13 | 323 | 4.8 | 14.5 | 0.00 | 0.05 | 0.05 | 87 | 1017.1 |
| 20260506022058 | 13 | 335 | 4.8 | 11.3 | 0.00 | 0.05 | 0.05 | 87 | 1017.3 |
| 20260506021559 | 13 | 317 | 3.2 | 12.9 | 0.00 | 0.05 | 0.05 | 86 | 1017.2 |
| 20260506021102 | 13 | 318 | 4.8 | 12.9 | 0.00 | 0.05 | 0.05 | 86 | 1017.1 |
| 20260506020558 | 13 | 5 | 3.2 | 11.3 | 0.00 | 0.05 | 0.05 | 85 | 1017.2 |
| 20260506020123 | 13 | 303 | 4.8 | 11.3 | 0.00 | 0.05 | 0.05 | 85 | 1017.1 |
| 20260506015559 | 13 | 333 | 3.2 | 9.7 | 0.00 | 0.05 | 0.05 | 84 | 1017.0 |
| 20260506015058 | 13 | 345 | 6.4 | 9.7 | 0.00 | 0.05 | 0.05 | 85 | 1017.2 |
| 20260506014600 | 13 | 338 | 4.8 | 9.7 | 0.00 | 0.05 | 0.05 | 85 | 1017.1 |
| 20260506014100 | 13 | 0 | 3.2 | 12.9 | 0.00 | 0.05 | 0.05 | 85 | 1017.1 |
| 20260506013556 | 13 | 333 | 4.8 | 12.9 | 0.00 | 0.05 | 0.05 | 85 | 1017.0 |
| 20260506013057 | 13 | 319 | 3.2 | 12.9 | 0.00 | 0.05 | 0.05 | 84 | 1017.1 |
| 20260506012558 | 13 | 306 | 6.4 | 11.3 | 0.00 | 0.05 | 0.05 | 83 | 1017.0 |
| 20260506012102 | 13 | 321 | 4.8 | 9.7 | 0.00 | 0.05 | 0.05 | 84 | 1017.0 |
| 20260506011600 | 13 | 5 | 3.2 | 9.7 | 0.00 | 0.05 | 0.05 | 83 | 1017.0 |
| 20260506011058 | 13 | 9 | 4.8 | 12.9 | 0.00 | 0.05 | 0.05 | 83 | 1016.9 |
| 20260506010558 | 13 | 5 | 4.8 | 12.9 | 0.00 | 0.05 | 0.05 | 83 | 1017.0 |
| 20260506010058 | 14 | 35 | 4.8 | 12.9 | 0.00 | 0.05 | 0.05 | 83 | 1017.0 |
| 20260506005557 | 14 | 309 | 6.4 | 12.9 | 0.00 | 0.05 | 0.05 | 83 | 1017.0 |
| 20260506005057 | 14 | 40 | 4.8 | 12.9 | 0.00 | 0.05 | 0.05 | 83 | 1017.0 |
| 20260506004557 | 14 | 334 | 4.8 | 12.9 | 0.00 | 0.05 | 0.05 | 83 | 1017.0 |
| 20260506004058 | 14 | 338 | 6.4 | 14.5 | 0.00 | 0.05 | 0.05 | 82 | 1017.0 |
| 20260506003558 | 14 | 9 | 4.8 | 16.1 | 0.00 | 0.05 | 0.05 | 82 | 1017.0 |
| 20260506003058 | 14 | 349 | 9.7 | 16.1 | 0.00 | 0.05 | 0.05 | 82 | 1017.0 |
| 20260506002558 | 14 | 336 | 6.4 | 16.1 | 0.00 | 0.05 | 0.05 | 82 | 1016.9 |
| 20260506002058 | 14 | 360 | 8.0 | 16.1 | 0.00 | 0.05 | 0.05 | 81 | 1016.9 |
| 20260506001607 | 14 | 293 | 6.4 | 17.7 | 0.00 | 0.05 | 0.05 | 81 | 1016.9 |
| 20260506001058 | 14 | 21 | 8.0 | 17.7 | 0.00 | 0.05 | 0.05 | 81 | 1016.9 |
| 20260506000601 | 15 | 344 | 8.0 | 17.7 | 0.00 | 0.05 | 0.05 | 81 | 1016.8 |
| 20260506000122 | 15 | 12 | 6.4 | 16.1 | 0.00 | 0.05 | 0.05 | 80 | 1016.9 |
| 20260505235558 | 15 | 321 | 8.0 | 14.5 | 0.00 | 0.05 | 0.05 | 81 | 1017.0 |
| 20260505235058 | 15 | 341 | 6.4 | 14.5 | 0.00 | 0.05 | 0.05 | 81 | 1017.0 |
| 20260505234613 | 15 | 360 | 6.4 | 16.1 | 0.00 | 0.05 | 0.05 | 81 | 1017.0 |
| 20260505234058 | 15 | 306 | 6.4 | 16.1 | 0.00 | 0.05 | 0.05 | 79 | 1017.0 |
| 20260505233558 | 15 | 31 | 6.4 | 16.1 | 0.00 | 0.05 | 0.05 | 80 | 1017.0 |
| 20260505233056 | 15 | 333 | 4.8 | 16.1 | 0.00 | 0.05 | 0.05 | 81 | 1017.1 |
| 20260505232557 | 15 | 12 | 6.4 | 14.5 | 0.00 | 0.05 | 0.05 | 82 | 1017.1 |
| 20260505232058 | 15 | 284 | 4.8 | 14.5 | 0.00 | 0.05 | 0.05 | 81 | 1017.1 |
| 20260505231559 | 15 | 323 | 6.4 | 14.5 | 0.00 | 0.05 | 0.05 | 81 | 1017.2 |
| 20260505231058 | 15 | 352 | 6.4 | 14.5 | 0.00 | 0.05 | 0.05 | 81 | 1017.2 |
| 20260505230558 | 15 | 330 | 3.2 | 14.5 | 0.00 | 0.05 | 0.05 | 81 | 1017.2 |
| 20260505230058 | 15 | 306 | 6.4 | 17.7 | 0.00 | 0.05 | 0.05 | 80 | 1017.2 |
| 20260505225600 | 15 | 349 | 6.4 | 17.7 | 0.00 | 0.05 | 0.05 | 80 | 1017.3 |
| 20260505225058 | 16 | 270 | 8.0 | 17.7 | 0.00 | 0.05 | 0.05 | 79 | 1017.3 |
| 20260505224557 | 16 | 312 | 8.0 | 16.1 | 0.00 | 0.05 | 0.05 | 79 | 1017.2 |
| 20260505224102 | 16 | 314 | 6.4 | 16.1 | 0.00 | 0.05 | 0.05 | 79 | 1017.2 |
| 20260505223558 | 16 | 287 | 6.4 | 14.5 | 0.00 | 0.05 | 0.05 | 79 | 1017.2 |
| 20260505223104 | 16 | 321 | 6.4 | 16.1 | 0.00 | 0.05 | 0.05 | 77 | 1017.3 |
| 20260505222557 | 16 | 286 | 6.4 | 16.1 | 0.00 | 0.05 | 0.05 | 78 | 1017.3 |
| 20260505222057 | 16 | 296 | 6.4 | 16.1 | 0.00 | 0.05 | 0.05 | 74 | 1017.2 |
| 20260505221601 | 17 | 321 | 4.8 | 19.3 | 0.00 | 0.05 | 0.05 | 77 | 1017.2 |
| 20260505221059 | 17 | 298 | 6.4 | 19.3 | 0.00 | 0.05 | 0.05 | 76 | 1017.3 |
| 20260505220558 | 17 | 325 | 8.0 | 19.3 | 0.00 | 0.05 | 0.05 | 76 | 1017.3 |
| 20260505220107 | 17 | 296 | 6.4 | 17.7 | 0.00 | 0.05 | 0.05 | 76 | 1017.3 |
| 20260505215600 | 17 | 309 | 6.4 | 16.1 | 0.00 | 0.05 | 0.05 | 75 | 1017.2 |
| 20260505215058 | 17 | 278 | 8.0 | 19.3 | 0.00 | 0.05 | 0.05 | 75 | 1017.2 |
| 20260505214605 | 17 | 296 | 9.7 | 19.3 | 0.00 | 0.05 | 0.05 | 75 | 1017.2 |
| 20260505214058 | 17 | 296 | 9.7 | 19.3 | 0.00 | 0.05 | 0.05 | 74 | 1017.1 |
| 20260505213558 | 17 | 319 | 6.4 | 16.1 | 0.00 | 0.05 | 0.05 | 74 | 1017.1 |
| 20260505213058 | 17 | 309 | 6.4 | 16.1 | 0.00 | 0.05 | 0.05 | 75 | 1017.0 |
| 20260505212557 | 17 | 321 | 8.0 | 17.7 | 0.00 | 0.05 | 0.05 | 75 | 1016.9 |
| 20260505212057 | 16 | 320 | 6.4 | 17.7 | 0.00 | 0.05 | 0.05 | 75 | 1016.9 |
| 20260505211636 | 16 | 306 | 1.6 | 14.5 | 0.00 | 0.05 | 0.05 | 76 | 1017.0 |
| 20260505211101 | 16 | 323 | 8.0 | 14.5 | 0.00 | 0.05 | 0.05 | 75 | 1016.9 |
| 20260505210558 | 16 | 324 | 8.0 | 16.1 | 0.00 | 0.05 | 0.05 | 75 | 1016.9 |
| 20260505210056 | 16 | 295 | 6.4 | 16.1 | 0.00 | 0.05 | 0.05 | 75 | 1016.8 |
| 20260505205558 | 16 | 265 | 6.4 | 16.1 | 0.00 | 0.05 | 0.05 | 75 | 1016.8 |
| 20260505205058 | 16 | 304 | 9.7 | 16.1 | 0.00 | 0.05 | 0.05 | 75 | 1016.8 |
| 20260505204605 | 16 | 293 | 8.0 | 17.7 | 0.00 | 0.05 | 0.05 | 76 | 1016.9 |
| 20260505204058 | 16 | 5 | 9.7 | 17.7 | 0.00 | 0.05 | 0.05 | 73 | 1016.8 |
| 20260505203558 | 16 | 324 | 4.8 | 16.1 | 0.00 | 0.05 | 0.05 | 75 | 1016.8 |
| 20260505203057 | 16 | 294 | 8.0 | 16.1 | 0.00 | 0.05 | 0.05 | 75 | 1016.7 |
| 20260505202601 | 17 | 325 | 8.0 | 16.1 | 0.00 | 0.05 | 0.05 | 74 | 1016.8 |
| 20260505202058 | 17 | 319 | 8.0 | 17.7 | 0.00 | 0.05 | 0.05 | 74 | 1016.9 |
| 20260505201559 | 17 | 323 | 6.4 | 17.7 | 0.00 | 0.05 | 0.05 | 76 | 1016.8 |
| 20260505201058 | 17 | 319 | 6.4 | 16.1 | 0.00 | 0.05 | 0.05 | 75 | 1016.8 |
| 20260505200558 | 17 | 268 | 3.2 | 12.9 | 0.00 | 0.05 | 0.05 | 76 | 1016.8 |
| 20260505200058 | 17 | 317 | 4.8 | 12.9 | 0.00 | 0.05 | 0.05 | 77 | 1016.8 |
| 20260505195558 | 17 | 340 | 4.8 | 12.9 | 0.00 | 0.05 | 0.05 | 77 | 1016.7 |
| 20260505195057 | 17 | 44 | 4.8 | 12.9 | 0.00 | 0.05 | 0.05 | 75 | 1016.7 |
| 20260505194557 | 17 | 312 | 4.8 | 14.5 | 0.00 | 0.05 | 0.05 | 74 | 1016.6 |
| 20260505194057 | 17 | 352 | 4.8 | 14.5 | 0.00 | 0.05 | 0.05 | 80 | 1016.7 |
| 20260505193558 | 16 | 331 | 4.8 | 14.5 | 0.00 | 0.05 | 0.05 | 79 | 1016.6 |
| 20260505193057 | 16 | 321 | 3.2 | 11.3 | 0.00 | 0.05 | 0.05 | 85 | 1016.7 |
| 20260505192600 | 15 | 318 | 1.6 | 6.4 | 0.00 | 0.05 | 0.05 | 82 | 1016.8 |
| 20260505192058 | 15 | 0 | 1.6 | 8.0 | 0.00 | 0.05 | 0.05 | 84 | 1016.8 |
| 20260505191604 | 15 | 0 | 1.6 | 8.0 | 0.00 | 0.05 | 0.05 | 82 | 1016.8 |
| 20260505191058 | 15 | 30 | 3.2 | 9.7 | 0.00 | 0.05 | 0.05 | 82 | 1016.8 |
| 20260505190601 | 15 | 302 | 1.6 | 14.5 | 0.00 | 0.05 | 0.05 | 83 | 1017.0 |
| 20260505190106 | 15 | 303 | 1.6 | 14.5 | 0.00 | 0.05 | 0.05 | 86 | 1017.1 |
| 20260505185558 | 15 | 350 | 4.8 | 14.5 | 0.00 | 0.05 | 0.05 | 86 | 1016.9 |
| 20260505185058 | 15 | 350 | 4.8 | 11.3 | 0.00 | 0.05 | 0.05 | 87 | 1016.9 |
| 20260505184556 | 14 | 314 | 1.6 | 16.1 | 0.00 | 0.05 | 0.05 | 87 | 1016.8 |
| 20260505184058 | 14 | 286 | 3.2 | 16.1 | 0.00 | 0.05 | 0.05 | 88 | 1016.9 |
| 20260505183557 | 14 | 308 | 3.2 | 9.7 | 0.00 | 0.05 | 0.05 | 90 | 1017.0 |
| 20260505183056 | 14 | 239 | 3.2 | 9.7 | 0.00 | 0.05 | 0.05 | 90 | 1017.0 |
| 20260505182558 | 14 | 308 | 3.2 | 6.4 | 0.00 | 0.05 | 0.05 | 91 | 1017.0 |
| 20260505182057 | 13 | 286 | 1.6 | 6.4 | 0.00 | 0.05 | 0.05 | 92 | 1017.0 |
| 20260505181640 | 13 | 301 | 1.6 | 6.4 | 0.00 | 0.05 | 0.05 | 93 | 1016.9 |
| 20260505181057 | 13 | 248 | 1.6 | 4.8 | 0.00 | 0.05 | 0.05 | 93 | 1016.8 |
| 20260505180558 | 13 | 227 | 1.6 | 4.8 | 0.00 | 0.05 | 0.05 | 93 | 1016.8 |
| 20260505180106 | 13 | 298 | 1.6 | 4.8 | 0.00 | 0.05 | 0.05 | 93 | 1016.7 |
| 20260505175558 | 13 | 266 | 0.0 | 4.8 | 0.03 | 0.05 | 0.05 | 93 | 1016.8 |
| 20260505175058 | 13 | 0 | 1.6 | 4.8 | 0.03 | 0.05 | 0.05 | 94 | 1016.8 |
| 20260505174558 | 13 | 302 | 1.6 | 6.4 | 0.03 | 0.05 | 0.05 | 93 | 1016.8 |
| 20260505174058 | 12 | 0 | 0.0 | 6.4 | 0.03 | 0.05 | 0.05 | 93 | 1016.8 |
| 20260505173558 | 12 | 301 | 1.6 | 6.4 | 0.03 | 0.05 | 0.05 | 93 | 1016.8 |
| 20260505173056 | 12 | 308 | 0.0 | 4.8 | 0.03 | 0.05 | 0.05 | 94 | 1016.7 |
| 20260505172557 | 12 | 288 | 1.6 | 4.8 | 0.03 | 0.05 | 0.05 | 94 | 1016.7 |
| 20260505172057 | 12 | 209 | 0.0 | 3.2 | 0.03 | 0.05 | 0.05 | 93 | 1016.6 |
| 20260505171604 | 12 | 209 | 0.0 | 3.2 | 0.03 | 0.05 | 0.05 | 95 | 1016.6 |
| 20260505171057 | 12 | 0 | 0.0 | 4.8 | 0.03 | 0.05 | 0.05 | 95 | 1016.6 |
| 20260505170558 | 12 | 209 | 1.6 | 4.8 | 0.03 | 0.05 | 0.05 | 95 | 1016.6 |
| 20260505170055 | 12 | 209 | 0.0 | 4.8 | 0.03 | 0.05 | 0.05 | 95 | 1016.6 |
| 20260505165559 | 12 | 246 | 1.6 | 4.8 | 0.00 | 0.03 | 0.03 | 95 | 1016.6 |
| 20260505165059 | 12 | 215 | 0.0 | 3.2 | 0.00 | 0.03 | 0.03 | 94 | 1016.5 |
| 20260505164557 | 12 | 192 | 0.0 | 4.8 | 0.00 | 0.03 | 0.03 | 94 | 1016.6 |
| 20260505164059 | 12 | 0 | 1.6 | 4.8 | 0.00 | 0.03 | 0.03 | 94 | 1016.6 |
| 20260505163601 | 12 | 192 | 1.6 | 4.8 | 0.00 | 0.03 | 0.03 | 94 | 1016.5 |
| 20260505163058 | 12 | 0 | 0.0 | 3.2 | 0.00 | 0.03 | 0.03 | 94 | 1016.5 |
| 20260505162558 | 12 | 323 | 0.0 | 3.2 | 0.00 | 0.03 | 0.03 | 94 | 1016.4 |
| 20260505162100 | 12 | 0 | 0.0 | 3.2 | 0.00 | 0.03 | 0.03 | 94 | 1016.4 |
| 20260505161559 | 12 | 0 | 0.0 | 3.2 | 0.00 | 0.03 | 0.03 | 94 | 1016.5 |
| 20260505161059 | 12 | 0 | 0.0 | 0.0 | 0.00 | 0.03 | 0.03 | 95 | 1016.4 |
| 20260505160559 | 12 | 0 | 0.0 | 0.0 | 0.00 | 0.03 | 0.03 | 95 | 1016.4 |
| 20260505153059 | 12 | 0 | 0.0 | 0.0 | 0.00 | 0.03 | 0.03 | 95 | 1016.4 |
| 20260505152558 | 12 | 0 | 0.0 | 0.0 | 0.00 | 0.03 | 0.03 | 95 | 1016.3 |
| 20260505152058 | 12 | 0 | 0.0 | 3.2 | 0.00 | 0.03 | 0.03 | 95 | 1016.2 |
| 20260505151602 | 12 | 0 | 0.0 | 3.2 | 0.00 | 0.03 | 0.03 | 95 | 1016.3 |
| 20260505151101 | 11 | 163 | 0.0 | 1.6 | 0.00 | 0.03 | 0.03 | 95 | 1016.2 |
| 20260505150558 | 11 | 169 | 0.0 | 1.6 | 0.00 | 0.03 | 0.03 | 95 | 1016.3 |
| 20260505140558 | 11 | 203 | 1.6 | 4.8 | 0.00 | 0.03 | 0.03 | 95 | 1015.9 |
| 20260505140108 | 11 | 206 | 1.6 | 4.8 | 0.00 | 0.03 | 0.03 | 95 | 1015.9 |
| 20260505130110 | 11 | 167 | 1.6 | 4.8 | 0.03 | 0.03 | 0.03 | 94 | 1015.5 |